Weather History for KAMW - November, 2011

Change the Weather History Date:

Sunday, November 20, 2011

  Actual Average Record
Temperature  
Mean Temperature 28 °F 34 °F  
Max Temperature 35 °F 43 °F 69 °F (2003)
Min Temperature 21 °F 25 °F 5 °F (2014)
Degree Days  
Heating Degree Days 37 31  
Month to date heating degree days 494 518  
Since 1 July heating degree days 1052 1114  
Cooling Degree Days 0 0  
Month to date cooling degree days 0 0  
Year to date cooling degree days 973 752  
Moisture  
Dew Point 20 °F    
Average Humidity 76    
Maximum Humidity 92    
Minimum Humidity 59    
Precipitation  
Precipitation 0.00 in 0.05 in 1.58 in (1992)
Month to date precipitation 2.97 1.61  
Year to date precipitation 29.15  
Sea Level Pressure  
Sea Level Pressure 30.29 in    
Wind  
Wind Speed 7 mph (North)    
Max Wind Speed 18 mph    
Max Gust Speed 23 mph    
Visibility 10 miles    
Events      
T = Trace of Precipitation, MM = Missing Value Source: NWS Daily Summary

Daily Weather History Graph

Daily Weather History Graph

Search for Another Location

Airport or City:

Trip Planner

Search our weather history database for the weather conditions in past years. The results will help you decide how hot, cold, wet, or windy it might be!

Date:

Astronomy

Nov. 20, 2011 Rise Set
Actual Time 7:10 AM CST 4:49 PM CST
Civil Twilight 6:39 AM CST 5:19 PM CST
Nautical Twilight 6:05 AM CST 5:54 PM CST
Astronomical Twilight 5:32 AM CST 6:27 PM CST
Moon 1:34 AM CST (11/20) 1:43 PM CST (11/20)
Length of Visible Light 10h 40m
Length of Day
9h 39m
Waning Crescent, 27% of the Moon is Illuminated
Nov 20
Waning Crescent
Nov 25
New
Dec 2
First Quarter
Dec 10
Full
Dec 17
Last Quarter

Hourly Weather History & Observations

Time (CST) Temp. Windchill Dew Point Humidity Pressure Visibility Wind Dir Wind Speed Gust Speed Precip Events Conditions
12:05 AM 26.6 °F 15.2 °F 21.2 °F 80% 30.12 in 10.0 mi NNW 13.8 mph - N/A   Overcast
12:53 AM 26.1 °F 13.6 °F 21.0 °F 81% 30.17 in 10.0 mi NNW 16.1 mph - N/A   Overcast
1:14 AM 26.6 °F 15.7 °F 21.2 °F 80% 30.18 in 10.0 mi NW 12.7 mph - N/A   Overcast
1:53 AM 25.0 °F 17.1 °F 19.9 °F 81% 30.22 in 10.0 mi NW 6.9 mph - N/A   Overcast
2:53 AM 24.1 °F 13.1 °F 19.9 °F 84% 30.26 in 10.0 mi NW 11.5 mph - N/A   Overcast
3:53 AM 24.1 °F 14.4 °F 19.9 °F 84% 30.27 in 10.0 mi NNW 9.2 mph - N/A   Overcast
4:53 AM 24.1 °F 13.7 °F 19.0 °F 81% 30.26 in 10.0 mi NNW 10.4 mph - N/A   Overcast
5:00 AM 23.0 °F 13.9 °F 19.4 °F 86% 30.24 in 10.0 mi North 8.1 mph - N/A   Overcast
5:09 AM 23.0 °F 11.7 °F 19.4 °F 86% 30.24 in 10.0 mi North 11.5 mph - N/A   Mostly Cloudy
5:53 AM 21.9 °F 11.7 °F 18.0 °F 85% 30.27 in 10.0 mi NNW 9.2 mph - N/A   Mostly Cloudy
6:53 AM 21.9 °F 10.4 °F 18.0 °F 85% 30.30 in 10.0 mi NNW 11.5 mph - N/A   Overcast
7:53 AM 21.9 °F 11.0 °F 18.0 °F 85% 30.32 in 10.0 mi North 10.4 mph - N/A   Overcast
8:23 AM 21.2 °F 11.7 °F 17.6 °F 86% 30.31 in 10.0 mi NNW 8.1 mph - N/A   Mostly Cloudy
8:37 AM 23.0 °F 13.9 °F 17.6 °F 80% 30.31 in 10.0 mi North 8.1 mph - N/A   Scattered Clouds
8:53 AM 24.1 °F 14.4 °F 19.0 °F 81% 30.35 in 10.0 mi NNW 9.2 mph - N/A   Partly Cloudy
9:53 AM 26.1 °F 19.4 °F 19.0 °F 75% 30.36 in 10.0 mi North 5.8 mph - N/A   Overcast
10:09 AM 26.6 °F 21.2 °F 19.4 °F 74% 30.33 in 10.0 mi North 4.6 mph - N/A   Overcast
10:17 AM 26.6 °F 19.1 °F 19.4 °F 74% 30.33 in 10.0 mi NNW 6.9 mph - N/A   Overcast
10:53 AM 27.0 °F 18.0 °F 19.9 °F 75% 30.37 in 10.0 mi NNW 9.2 mph - N/A   Overcast
11:53 AM 30.0 °F 21.7 °F 21.0 °F 69% 30.36 in 10.0 mi NNW 9.2 mph - N/A   Overcast
12:53 PM 35.1 °F 27.9 °F 23.0 °F 61% 30.34 in 10.0 mi North 9.2 mph - N/A   Overcast
1:53 PM 34.0 °F 28.8 °F 21.9 °F 61% 30.33 in 10.0 mi North 5.8 mph - N/A   Scattered Clouds
2:53 PM 34.0 °F 27.2 °F 21.9 °F 61% 30.32 in 10.0 mi NNE 8.1 mph - N/A   Clear
3:53 PM 34.0 °F 27.2 °F 21.9 °F 61% 30.32 in 10.0 mi NNE 8.1 mph - N/A   Clear
4:53 PM 32.0 °F 26.4 °F 21.9 °F 66% 30.32 in 10.0 mi NNE 5.8 mph - N/A   Clear
5:53 PM 30.0 °F 25.2 °F 21.9 °F 72% 30.33 in 10.0 mi NE 4.6 mph - N/A   Clear
6:53 PM 28.0 °F 22.8 °F 21.0 °F 75% 30.33 in 10.0 mi NE 4.6 mph - N/A   Clear
7:53 PM 27.0 °F 23.0 °F 21.0 °F 78% 30.33 in 10.0 mi ENE 3.5 mph - N/A   Clear
8:53 PM 27.0 °F - 21.0 °F 78% 30.33 in 10.0 mi Calm Calm - N/A   Clear
10:53 PM 21.9 °F - 19.0 °F 89% 30.31 in 10.0 mi Calm Calm - N/A   Clear
11:53 PM 23.0 °F - 19.9 °F 88% 30.31 in 10.0 mi Calm Calm - N/A   Clear